sat.trackr.live / text

‹ back to catalog

STARLINK-31419

NORAD 59368 · 2024-060W

PAYLOAD ACTIVE UNKNOWN

§ Identity

Operator
Country
US
Launch date
2024-03-31
Launch site
AFETR
Launch vehicle
Mass (kg)
RCS (m²)

Purposes: comms

External: N2YO · Heavens-Above · Gunter

§ Orbital elements

Epoch: 2026-09-20T08:13:46.020864Z

Period
94.27 min
Inclination
43.0024°
Eccentricity
0.0001269
Mean motion
15.27578546 rev/d
Perigee alt
482.2 km
Apogee alt
483.9 km
Semi-major
6,861.2 km
B*
1.8779e-5
RAAN
240.4605°
Arg perigee
266.3936°
Mean anomaly
93.6770°
Rev number
13,983

§ Raw data

STARLINK-314191 59368U 24060W   26263.34289376  .00000255  00000+0  18779-4 0  99912 59368  43.0024 240.4605 0001269 266.3936  93.6770 15.27578546139836

JSON: /api/v1/satellites/59368 · /tle

For live sub-satellite position, see the globe view (requires WebGL).

§ Visibility from observer

Set your observer location to see the next 7 days of passes ≥ 10°. The values pass through the URL so the page stays shareable.

No JS? Fill the form by hand. The geolocation button needs JavaScript.